Regional Weather Roundup
Issued by NWS

Home | Current Version | Previous Version | Graphics & Text | Print | Product List | Glossary On
Versions: 1 2 3 4 5 6 7 8 9 10 11 12 13 14 15 16 17 18 19 20 21 22 23 24 25 26 27 28 29 30 31 32 33 34 35 36 37 38 39 40 41 42 43 44 45 46 47 48 49 50
000
ASUS43 KDMX 262307
RWRIA

WEATHER ROUNDUP FOR IOWA
NATIONAL WEATHER SERVICE DES MOINES IA
500 PM CST WED NOV 26 2014

NOTE: "FAIR" INDICATES FEW OR NO CLOUDS BELOW 12,000 FEET WITH NO
SIGNIFICANT WEATHER AND/OR OBSTRUCTIONS TO VISIBILITY.

* - THESE STATIONS ARE NOT NWS STATIONS...THUS NOT UNDER NWS
QUALITY CONTROL.  THEY ALSO DO NOT REPORT WEATHER SUCH
AS PRECIPITATION OR FOG.

IAZ001>003-012>014-020>022-031>034-043>046-270000-
   NORTHWEST IOWA

CITY           SKY/WX    TMP DP  RH WIND       PRES   REMARKS
CARROLL *      CLOUDY    25  21  86 N22G30    30.23R WCI  10
CHEROKEE *     CLOUDY    21  18  86 N16G24    30.30R WCI   7
DENISON *      CLOUDY    23  19  86 N16G30    30.25R WCI  10
LE MARS *      CLOUDY    21  16  79 N16G23    30.34R WCI   7
ORANGE CITY *  CLOUDY    19  14  79 N16G22    30.31R WCI   5
SHELDON *      CLOUDY    18  14  86 N18G24    30.29R WCI   2
SIOUX CITY     CLOUDY    22  15  75 NW26G35   30.33R WCI   5
SPENCER        CLOUDY    19  14  81 N18       30.28R WCI   4
STORM LAKE *   CLOUDY    21  18  86 N21       30.26R WCI   6
$$

IAZ055>058-069>071-079>083-090>094-270000-
   SOUTHWEST IOWA

CITY           SKY/WX    TMP DP  RH WIND       PRES   REMARKS
ATLANTIC *     MIX PCPN  27  23  86 N22G31    30.21R WCI  12
AUDUBON *      FLURRIES  25  19  80 N21G30    30.21R WCI  10
CLARINDA *     CLOUDY    28  25  86 N20G30    30.23R WCI  15
COUNCIL BLFS * CLOUDY    27  23  86 N20G29    30.25R WCI  13
CRESTON *      CLOUDY    28  25  86 N23G32    30.14R WCI  14
HARLAN  *      CLOUDY    25  23  93 N24G37    30.27R WCI   9
LAMONI         CLOUDY    29  27  92 N22G30    30.10R WCI  15
RED OAK *      CLOUDY    28  23  80 N21G30    30.23R WCI  15
SHENANDOAH *   CLOUDY    28  23  80 N22G32    30.25R WCI  15
$$

IAZ047>049-059>061-072>074-084-270000-
   CENTRAL IOWA

CITY           SKY/WX    TMP DP  RH WIND       PRES   REMARKS
AMES           LGT SNOW  29  25  85 N17       30.17R FOG     WCI  17
ANKENY *       CLOUDY    30  28  93 N15       30.16R WCI  19
CHARITON *     CLOUDY    30  28  93 N13       30.11R FOG     WCI  20
DES MOINES     FLURRIES  32  27  81 N14       30.16R WCI  22
GRINNELL*      LGT SNOW  30  28  93 N13G18    30.13R WCI  20
KNOXVILLE *    CLOUDY    30  28  93 N9        30.11R FOG     WCI  22
MARSHALLTOWN   LGT SNOW  29  27  92 N15       30.15R FOG     WCI  18
PELLA *        MIX PCPN  30  28  93 N9        30.13R WCI  22
PERRY *        LGT SNOW  28  28 100 N17G24    30.19R WCI  16
$$

IAZ004>006-015-016-023>025-035-036-270000-
   NORTH CENTRAL IOWA

CITY           SKY/WX    TMP DP  RH WIND       PRES   REMARKS
ALGONA *       CLOUDY    25  23  93 N20G28    30.23R FOG     WCI  11
CLARION *      MIX PCPN  25  27 100 N8G14     30.21R VSB 1/2 WCI  16
ESTHERVILLE    CLOUDY    17  14  88 N20       30.26R WCI   1
FORT DODGE *   CLOUDY    25  19  80 N10       30.23R WCI  15
MASON CITY     LGT SNOW  25  22  88 N10       30.21R VSB 1   WCI  15
FOREST CITY *  LGT SNOW  27  27 100 N12       30.21R WCI  16
IOWA FALLS *   LGT SNOW  27  25  93 N14       30.19R WCI  15
$$

IAZ007>011-017>019-026>030-037>042-050>054-066-270000-
   NORTHEAST IOWA

CITY           SKY/WX    TMP DP  RH WIND       PRES   REMARKS
CEDAR RAPIDS   LGT SNOW  28  25  88 NE13      30.12R FOG     WCI  17
CHARLES CITY * LGT SNOW  27  25  93 N10       30.19R WCI  17
CLINTON *      CLOUDY    27  21  80 NE9       30.15R WCI  17
DECORAH *      LGT SNOW  25  23  93 N12       30.17R WCI  14
DUBUQUE        CLOUDY    25  23  92 NE12      30.14R FOG     WCI  14
MONTICELLO *   CLOUDY    28  25  86 N9G15     30.14R WCI  20
OELWEIN *      LGT SNOW  27  25  93 N13       30.17R WCI  16
WATERLOO       LGT SNOW  28  26  92 N12       30.17R FOG     WCI  18
$$

IAZ064-065-067-068-078-270000-
   EAST CENTRAL IOWA

CITY           SKY/WX    TMP DP  RH WIND       PRES   REMARKS
DAVENPORT      CLOUDY    27  22  81 NE12      30.12R WCI  17
IOWA CITY      CLOUDY    29  25  85 NE12      30.14R WCI  19
MT. PLEASANT * LGT SNOW  30  30 100 NE9       30.09R WCI  22
MUSCATINE *    CLOUDY    30  27  86 NE12      30.12R WCI  21
QUAD CITIES    CLOUDY    29  23  78 E10       30.11R WCI  20
$$

IAZ062-063-075>077-085>089-095>099-270000-
   SOUTHEAST IOWA

CITY           SKY/WX    TMP DP  RH WIND       PRES   REMARKS
BURLINGTON     LGT SNOW  30  29  96 E9        30.07R VSB 1   WCI  22
FAIRFIELD *    LGT SNOW  30  28  93 NE10      30.09R VSB 1   WCI  21
FORT MADISON * LGT SNOW  32  30  93 E7        30.07R WCI  26
KEOKUK *       MIX PCPN  32  30  93 E7        30.05R WCI  26
OSKALOOSA *    LGT SNOW  28  28 100 NE12      30.11R WCI  18
CENTERVILLE *  LGT RAIN  32  32 100 N7        30.08R WCI  26
OTTUMWA        LGT SNOW  30  27  88 NE9       30.10R FOG     WCI  22
WASHINGTON *   LGT SNOW  30  30 100 NE13      30.10R WCI  20
$$

ABBREVIATIONS USED IN REMARKS
   TC - TEMPERATURES IN CELSIUS
  WCI - WIND CHILL INDEX
   HX - HEAT INDEX
  VSB - VISIBILITY
$$



USA.gov is the U.S. government's official web portal to all federal, state and local government web resources and services.